Weather History for KSBS - February, 2013

Change the Weather History Date:

Tuesday, February 26, 2013

  Actual Average Record
Temperature  
Mean Temperature 18 °F -  
Max Temperature 24 °F 36 °F 53 °F (1986)
Min Temperature 11 °F 7 °F -27 °F (1964)
Degree Days  
Heating Degree Days 48    
Moisture  
Dew Point 12 °F    
Average Humidity 81    
Maximum Humidity 96    
Minimum Humidity 66    
Precipitation  
Precipitation 0.00 in - - ()
Sea Level Pressure  
Sea Level Pressure 29.94 in    
Wind  
Wind Speed 2 mph (SW)    
Max Wind Speed 13 mph    
Max Gust Speed -    
Visibility 4 miles    
Events      
Averages and records for this station are not official NWS values.
T = Trace of Precipitation, MM = Missing Value Source: NWS Daily Summary

Daily Weather History Graph

Daily Weather History Graph

Search for Another Location

Airport or City:

Trip Planner

Search our weather history database for the weather conditions in past years. The results will help you decide how hot, cold, wet, or windy it might be!

Date:

Astronomy

Feb. 26, 2013 Rise Set
Actual Time 6:45 AM MST 5:55 PM MST
Civil Twilight 6:17 AM MST 6:23 PM MST
Nautical Twilight 5:46 AM MST 6:55 PM MST
Astronomical Twilight 5:14 AM MST 7:26 PM MST
Moon 7:16 PM MST (2/26) 6:49 AM MST (2/26)
Length of Visible Light 12h 05m
Length of Day
11h 10m
Full, 99% of the Moon is Illuminated
Feb 26
Full
Mar 4
Last Quarter
Mar 11
New
Mar 19
First Quarter
Mar 27
Full

Hourly Weather History & Observations

Time (MST) Temp. Windchill Dew Point Humidity Pressure Visibility Wind Dir Wind Speed Gust Speed Precip Events Conditions
12:10 AM 12.9 °F - 5.5 °F 72% 29.89 in 10.0 mi Calm Calm - N/A   Overcast
12:29 AM 12.2 °F 2.9 °F 5.0 °F 73% 29.88 in 10.0 mi East 5.8 mph - N/A   Overcast
12:49 AM 11.8 °F 2.5 °F 5.4 °F 75% 29.87 in 10.0 mi East 5.8 mph - N/A   Mostly Cloudy
1:09 AM 11.8 °F - 4.6 °F 73% 29.87 in 10.0 mi Calm Calm - N/A   Overcast
1:29 AM 12.0 °F - 5.4 °F 75% 29.86 in 10.0 mi Calm Calm - N/A   Overcast
1:49 AM 12.2 °F - 5.5 °F 75% 29.87 in 10.0 mi Calm Calm - N/A   Overcast
2:09 AM 13.5 °F - 5.7 °F 71% 29.86 in 10.0 mi Calm Calm - N/A   Overcast
2:30 AM 13.1 °F - 5.7 °F 72% 29.85 in 10.0 mi Calm Calm - N/A   Overcast
2:50 AM 11.7 °F - 5.7 °F 77% 29.84 in 10.0 mi Calm Calm - N/A   Overcast
3:10 AM 11.7 °F - 5.7 °F 77% 29.84 in 7.0 mi Calm Calm - N/A   Overcast
3:30 AM 11.3 °F - 5.9 °F 79% 29.84 in 7.0 mi Calm Calm - N/A   Overcast
3:50 AM 11.3 °F - 5.9 °F 79% 29.84 in 4.0 mi Calm Calm - N/A   Overcast
4:11 AM 11.7 °F - 6.8 °F 81% 29.84 in 1.0 mi Calm Calm - N/A   Overcast
4:30 AM 12.0 °F - 7.9 °F 83% 29.84 in 1.0 mi Calm Calm - N/A   Overcast
4:50 AM 12.2 °F - 8.6 °F 85% 29.83 in 1.0 mi Calm Calm - N/A   Overcast
5:10 AM 12.2 °F - 9.9 °F 90% 29.83 in 1.5 mi Calm Calm - N/A   Overcast
5:30 AM 12.6 °F - 10.2 °F 90% 29.84 in 2.5 mi Calm Calm - N/A   Overcast
5:51 AM 11.8 °F - 9.9 °F 92% 29.84 in 1.5 mi Calm Calm - N/A   Overcast
6:11 AM 11.7 °F - 9.9 °F 92% 29.85 in 1.5 mi Calm Calm - N/A   Overcast
6:29 AM 12.2 °F - 10.4 °F 92% 29.86 in 1.2 mi Calm Calm - N/A   Overcast
6:50 AM 12.9 °F - 10.8 °F 91% 29.86 in 1.0 mi Calm Calm - N/A   Overcast
7:10 AM 13.5 °F - 11.1 °F 90% 29.86 in 0.8 mi Calm Calm - N/A   Overcast
7:30 AM 13.8 °F - 11.3 °F 90% 29.86 in 1.5 mi Calm Calm - N/A   Overcast
7:51 AM 15.3 °F - 10.4 °F 81% 29.87 in 1.2 mi Calm Calm - N/A   Overcast
8:10 AM 16.2 °F - 11.8 °F 83% 29.88 in 2.5 mi Calm Calm - N/A   Overcast
8:30 AM 16.5 °F - 11.3 °F 80% 29.88 in 5.0 mi Calm Calm - N/A   Overcast
8:50 AM 17.4 °F - 11.3 °F 77% 29.88 in 10.0 mi Calm Calm - N/A   Mostly Cloudy
9:10 AM 18.5 °F - 11.1 °F 73% 29.88 in 10.0 mi Calm Calm - N/A   Mostly Cloudy
9:30 AM 18.9 °F - 11.7 °F 74% 29.89 in 2.5 mi Calm Calm - N/A   Overcast
9:50 AM 19.4 °F - 12.0 °F 73% 29.89 in 1.5 mi Calm Calm - N/A   Overcast
10:11 AM 20.1 °F - 12.7 °F 73% 29.89 in 1.2 mi Calm Calm - N/A   Overcast
10:30 AM 21.2 °F - 13.6 °F 73% 29.89 in 1.2 mi Calm Calm - N/A   Overcast
10:50 AM 21.9 °F 11.7 °F 14.0 °F 72% 29.89 in 2.0 mi SW 9.2 mph - N/A   Overcast
11:10 AM 22.3 °F 13.0 °F 13.1 °F 68% 29.90 in 2.0 mi SW 8.1 mph - N/A   Overcast
11:30 AM 21.9 °F 12.5 °F 12.7 °F 68% 29.90 in 3.0 mi SW 8.1 mph - N/A   Overcast
11:50 AM 21.7 °F 9.6 °F 12.9 °F 69% 29.90 in 2.0 mi SW 12.7 mph - N/A   Overcast
12:09 PM 21.9 °F 11.7 °F 13.5 °F 70% 29.90 in 1.8 mi SW 9.2 mph - N/A   Overcast
12:30 PM 22.6 °F 11.3 °F 13.6 °F 68% 29.90 in 2.5 mi SW 11.5 mph - N/A   Overcast
12:49 PM 23.4 °F 12.2 °F 13.6 °F 66% 29.90 in 1.8 mi SW 11.5 mph - N/A   Overcast
1:09 PM 23.7 °F 13.3 °F 14.0 °F 66% 29.90 in 1.5 mi SW 10.4 mph - N/A   Overcast
1:30 PM 23.2 °F 12.0 °F 13.6 °F 67% 29.91 in 2.5 mi SW 11.5 mph - N/A   Overcast
1:49 PM 22.6 °F 11.9 °F 14.2 °F 70% 29.91 in 5.0 mi SW 10.4 mph - N/A   Overcast
2:10 PM 22.8 °F 11.5 °F 14.0 °F 69% 29.92 in 7.0 mi SW 11.5 mph - N/A   Overcast
2:29 PM 23.0 °F 14.7 °F 14.4 °F 70% 29.93 in 2.5 mi SW 6.9 mph - N/A   Overcast
2:50 PM 22.8 °F 12.9 °F 14.9 °F 72% 29.94 in 2.5 mi SW 9.2 mph - N/A   Overcast
3:09 PM 23.5 °F 13.0 °F 15.4 °F 71% 29.94 in 1.2 mi SW 10.4 mph - N/A   Overcast
3:30 PM 24.8 °F 16.1 °F 15.6 °F 68% 29.95 in 2.0 mi SW 8.1 mph - N/A   Overcast
3:50 PM 23.9 °F 15.8 °F 15.8 °F 71% 29.95 in 5.0 mi SW 6.9 mph - N/A   Overcast
4:10 PM 23.4 °F 16.2 °F 16.5 °F 75% 29.96 in 2.5 mi SW 5.8 mph - N/A   Overcast
4:30 PM 22.6 °F 13.4 °F 17.1 °F 79% 29.97 in 3.0 mi SW 8.1 mph - N/A   Overcast
4:49 PM 22.1 °F 14.7 °F 17.2 °F 82% 29.98 in 2.5 mi WSW 5.8 mph - N/A   Overcast
5:10 PM 21.7 °F 14.3 °F 17.6 °F 84% 29.99 in 3.0 mi SW 5.8 mph - N/A   Overcast
5:30 PM 21.2 °F 16.4 °F 18.3 °F 89% 30.00 in 2.5 mi WSW 3.5 mph - N/A   Overcast
5:49 PM 20.8 °F 14.4 °F 19.4 °F 94% 30.00 in 1.0 mi SW 4.6 mph - N/A   Overcast
6:10 PM 20.7 °F - 19.4 °F 95% 30.02 in 1.2 mi Calm Calm - N/A   Overcast
6:31 PM 20.3 °F - 19.4 °F 96% 30.03 in 1.5 mi Calm Calm - N/A   Overcast
6:50 PM 19.8 °F 14.7 °F 18.7 °F 96% 30.04 in 3.0 mi SSW 3.5 mph - N/A   Overcast
7:10 PM 19.0 °F 12.3 °F 17.6 °F 94% 30.04 in 3.0 mi SSW 4.6 mph - N/A   Overcast
7:30 PM 18.5 °F 13.3 °F 16.9 °F 93% 30.06 in 5.0 mi SSW 3.5 mph - N/A   Overcast
7:49 PM 18.9 °F - 17.2 °F 93% 30.07 in 1.0 mi Calm Calm - N/A   Overcast
8:09 PM 18.7 °F - 16.9 °F 93% 30.07 in 2.5 mi Calm Calm - N/A   Overcast
8:29 PM 18.7 °F - 16.7 °F 92% 30.08 in 1.5 mi Calm Calm - N/A   Overcast
8:50 PM 18.0 °F - 16.2 °F 93% 30.09 in 2.5 mi Calm Calm - N/A   Overcast
9:09 PM 17.4 °F - 15.6 °F 93% 30.10 in 4.0 mi Calm Calm - N/A   Overcast
9:49 PM 17.1 °F - 15.6 °F 94% 30.11 in 7.0 mi Calm Calm - N/A   Overcast
10:09 PM 15.6 °F - 14.2 °F 94% 30.12 in 10.0 mi Calm Calm - N/A   Scattered Clouds
10:31 PM 14.5 °F - 13.3 °F 95% 30.13 in 10.0 mi Calm Calm - N/A   Mostly Cloudy
10:49 PM 14.7 °F - 13.6 °F 95% 30.14 in 4.0 mi Calm Calm - N/A   Overcast
11:09 PM 15.8 °F - 14.7 °F 95% 30.14 in 4.0 mi Calm Calm - N/A   Overcast
11:30 PM 14.7 °F - 13.5 °F 95% 30.15 in 7.0 mi Calm Calm - N/A   Overcast
11:50 PM 15.4 °F - 14.2 °F 95% 30.15 in 4.0 mi Calm Calm - N/A   Overcast